When you browse on this site, cookies collect data to enhance your experience and personalize the content and advertising you see.
Visit our Privacy Policy to learn more. By continuing to use the site, you agree to this use of cookies and data.
  • In Deutschland
  • Länderverzeichnis
  • Für 7 Tage
  • Wassertemperatur
  • Satellitenkarten
  • Wetterkarte
  • Widgets
  • user-avatar
    Anmelden

    Stündliche Wetter Laskowizna

    Heute, 20 Mai, Montag

    Zeit Temperatur Niederschläge Wind Luftdruck Luftfeuchtigkeit
    00:00 +15°C° 0 mm 4 m/S 746 mmHg 96%
    01:00 +16°C° 0 mm 3 m/S 746 mmHg 96%
    02:00 +15°C° 0.7 mm 4 m/S 746 mmHg 96%
    03:00 +15°C° 0.7 mm 4 m/S 746 mmHg 97%
    04:00 +15°C° 0.7 mm 4 m/S 745 mmHg 97%
    05:00 +17°C° 0.1 mm 4 m/S 745 mmHg 95%
    06:00 +17°C° 0.1 mm 5 m/S 745 mmHg 94%
    07:00 +19°C° 0.1 mm 6 m/S 745 mmHg 92%
    08:00 +19°C° 0.3 mm 6 m/S 745 mmHg 92%
    09:00 +19°C° 0.3 mm 6 m/S 745 mmHg 91%
    10:00 +20°C° 0.3 mm 6 m/S 745 mmHg 91%
    11:00 +21°C° 0 mm 6 m/S 745 mmHg 85%
    12:00 +23°C° 0 mm 6 m/S 745 mmHg 80%
    13:00 +24°C° 0 mm 6 m/S 745 mmHg 74%
    14:00 +23°C° 1.9 mm 6 m/S 744 mmHg 78%
    15:00 +22°C° 1.9 mm 6 m/S 744 mmHg 82%
    16:00 +21°C° 1.9 mm 6 m/S 744 mmHg 86%
    17:00 +20°C° 0.2 mm 5 m/S 744 mmHg 88%
    18:00 +20°C° 0.2 mm 5 m/S 744 mmHg 89%
    19:00 +19°C° 0.2 mm 4 m/S 744 mmHg 91%
    20:00 +19°C° 0.7 mm 4 m/S 744 mmHg 91%
    21:00 +17°C° 0.7 mm 5 m/S 744 mmHg 91%
    22:00 +17°C° 0.7 mm 5 m/S 744 mmHg 91%
    23:00 +17°C° 0.1 mm 4 m/S 744 mmHg 93%

    Morgen, 21 Mai, Dienstag

    Zeit Temperatur Niederschläge Wind Luftdruck Luftfeuchtigkeit
    00:00 +17°C° 0.1 mm 4 m/S 744 mmHg 94%
    01:00 +16°C° 0.1 mm 3 m/S 744 mmHg 95%
    02:00 +17°C° 0 mm 3 m/S 744 mmHg 95%
    03:00 +17°C° 0 mm 4 m/S 744 mmHg 96%
    04:00 +17°C° 0 mm 4 m/S 743 mmHg 96%
    05:00 +17°C° 0.2 mm 4 m/S 743 mmHg 94%
    06:00 +17°C° 0.2 mm 5 m/S 743 mmHg 93%
    07:00 +19°C° 0.2 mm 5 m/S 743 mmHg 92%
    08:00 +19°C° 0.1 mm 5 m/S 743 mmHg 90%
    09:00 +19°C° 0.1 mm 5 m/S 743 mmHg 89%
    10:00 +19°C° 0.1 mm 5 m/S 743 mmHg 87%
    11:00 +20°C° 0.2 mm 5 m/S 743 mmHg 85%
    12:00 +20°C° 0.2 mm 6 m/S 743 mmHg 82%
    13:00 +20°C° 0.2 mm 6 m/S 743 mmHg 80%
    14:00 +21°C° 0.6 mm 6 m/S 743 mmHg 79%
    15:00 +21°C° 0.6 mm 6 m/S 743 mmHg 79%
    16:00 +21°C° 0.6 mm 6 m/S 743 mmHg 79%
    17:00 +20°C° 0.1 mm 5 m/S 743 mmHg 82%
    18:00 +19°C° 0.1 mm 5 m/S 743 mmHg 85%
    19:00 +16°C° 0.1 mm 5 m/S 743 mmHg 88%
    20:00 +15°C° 0 mm 5 m/S 743 mmHg 89%
    21:00 +14°C° 0 mm 5 m/S 743 mmHg 91%
    22:00 +13°C° 0 mm 5 m/S 743 mmHg 93%
    23:00 +14°C° 0 mm 5 m/S 743 mmHg 92%

    übermorgen, 22 Mai, Mittwoch

    Zeit Temperatur Niederschläge Wind Luftdruck Luftfeuchtigkeit
    00:00 +14°C° 0 mm 5 m/S 744 mmHg 92%
    01:00 +14°C° 0 mm 4 m/S 744 mmHg 92%
    02:00 +13°C° 0 mm 4 m/S 744 mmHg 93%
    03:00 +13°C° 0 mm 4 m/S 744 mmHg 95%
    04:00 +13°C° 0 mm 3 m/S 744 mmHg 96%
    05:00 +14°C° 0 mm 3 m/S 744 mmHg 92%
    06:00 +15°C° 0 mm 4 m/S 744 mmHg 88%
    07:00 +17°C° 0 mm 4 m/S 745 mmHg 83%
    08:00 +18°C° 0.7 mm 4 m/S 745 mmHg 80%
    09:00 +19°C° 0.7 mm 5 m/S 745 mmHg 76%
    10:00 +20°C° 0.7 mm 5 m/S 745 mmHg 73%
    11:00 +21°C° 0.8 mm 4 m/S 744 mmHg 72%
    12:00 +21°C° 0.8 mm 4 m/S 744 mmHg 71%
    13:00 +21°C° 0.8 mm 4 m/S 744 mmHg 70%
    14:00 +21°C° 0.5 mm 3 m/S 744 mmHg 70%
    15:00 +21°C° 0.5 mm 3 m/S 744 mmHg 70%
    16:00 +21°C° 0.5 mm 3 m/S 744 mmHg 71%
    17:00 +20°C° 0.2 mm 3 m/S 744 mmHg 76%
    18:00 +19°C° 0.2 mm 2 m/S 744 mmHg 82%
    19:00 +18°C° 0.2 mm 2 m/S 744 mmHg 87%
    20:00 +17°C° 0 mm 2 m/S 744 mmHg 90%
    21:00 +16°C° 0 mm 2 m/S 744 mmHg 92%
    22:00 +15°C° 0 mm 2 m/S 745 mmHg 94%
    23:00 +14°C° 0 mm 2 m/S 745 mmHg 94%

    23 Mai, Donnerstag

    Zeit Temperatur Niederschläge Wind Luftdruck Luftfeuchtigkeit
    00:00 +14°C° 0 mm 1 m/S 745 mmHg 94%
    01:00 +13°C° 0 mm 1 m/S 745 mmHg 95%
    02:00 +13°C° 0 mm 1 m/S 745 mmHg 95%
    03:00 +13°C° 0 mm 1 m/S 745 mmHg 95%
    04:00 +13°C° 0 mm 1 m/S 745 mmHg 96%
    05:00 +14°C° 0 mm 1 m/S 745 mmHg 92%
    06:00 +15°C° 0 mm 1 m/S 745 mmHg 88%
    07:00 +18°C° 0 mm 1 m/S 746 mmHg 84%
    08:00 +19°C° 0.5 mm 1 m/S 746 mmHg 82%
    09:00 +20°C° 0.5 mm 1 m/S 746 mmHg 80%
    10:00 +20°C° 0.5 mm 2 m/S 747 mmHg 78%
    11:00 +19°C° 1.8 mm 3 m/S 747 mmHg 80%
    12:00 +19°C° 1.8 mm 4 m/S 747 mmHg 82%
    13:00 +19°C° 1.8 mm 5 m/S 747 mmHg 84%
    14:00 +17°C° 0.6 mm 6 m/S 747 mmHg 86%
    15:00 +15°C° 0.6 mm 6 m/S 747 mmHg 87%
    16:00 +14°C° 0.6 mm 7 m/S 747 mmHg 89%
    17:00 +12°C° 0 mm 7 m/S 748 mmHg 88%
    18:00 +13°C° 0 mm 6 m/S 748 mmHg 87%
    19:00 +11°C° 0 mm 6 m/S 748 mmHg 86%
    20:00 +11°C° 0 mm 6 m/S 748 mmHg 84%
    21:00 +10°C° 0 mm 5 m/S 749 mmHg 81%
    22:00 +9°C° 0 mm 5 m/S 749 mmHg 79%
    23:00 +9°C° 0 mm 5 m/S 749 mmHg 79%

    24 Mai, Freitag

    Zeit Temperatur Niederschläge Wind Luftdruck Luftfeuchtigkeit
    00:00 +8°C° 0 mm 5 m/S 749 mmHg 79%
    01:00 +8°C° 0 mm 4 m/S 749 mmHg 79%
    02:00 +8°C° 0 mm 4 m/S 749 mmHg 81%
    03:00 +8°C° 0 mm 4 m/S 749 mmHg 83%
    04:00 +8°C° 0 mm 3 m/S 749 mmHg 85%
    05:00 +9°C° 0 mm 3 m/S 749 mmHg 83%
    06:00 +10°C° 0 mm 3 m/S 749 mmHg 82%
    07:00 +11°C° 0 mm 3 m/S 749 mmHg 80%
    08:00 +13°C° 0 mm 3 m/S 749 mmHg 74%
    09:00 +16°C° 0 mm 3 m/S 749 mmHg 68%
    10:00 +17°C° 0 mm 4 m/S 749 mmHg 61%
    11:00 +18°C° 0 mm 3 m/S 749 mmHg 58%
    12:00 +19°C° 0 mm 3 m/S 748 mmHg 55%
    13:00 +20°C° 0 mm 3 m/S 748 mmHg 53%
    14:00 +20°C° 0 mm 3 m/S 748 mmHg 53%
    15:00 +20°C° 0 mm 3 m/S 747 mmHg 53%
    16:00 +20°C° 0 mm 2 m/S 747 mmHg 54%
    17:00 +18°C° 0 mm 2 m/S 747 mmHg 61%
    18:00 +17°C° 0 mm 2 m/S 746 mmHg 69%
    19:00 +16°C° 0 mm 2 m/S 746 mmHg 77%
    20:00 +15°C° 0 mm 2 m/S 746 mmHg 80%
    21:00 +13°C° 0 mm 2 m/S 746 mmHg 84%
    22:00 +12°C° 0 mm 2 m/S 746 mmHg 88%
    23:00 +12°C° 0 mm 2 m/S 746 mmHg 89%

    25 Mai, Samstag

    Zeit Temperatur Niederschläge Wind Luftdruck Luftfeuchtigkeit
    00:00 +10°C° 0 mm 2 m/S 746 mmHg 89%
    01:00 +9°C° 0 mm 2 m/S 746 mmHg 90%
    02:00 +9°C° 0 mm 2 m/S 746 mmHg 89%
    03:00 +9°C° 0 mm 2 m/S 746 mmHg 88%
    04:00 +8°C° 0 mm 2 m/S 746 mmHg 88%
    05:00 +10°C° 0 mm 2 m/S 746 mmHg 82%
    06:00 +13°C° 0 mm 2 m/S 746 mmHg 77%
    07:00 +15°C° 0 mm 2 m/S 746 mmHg 72%
    08:00 +16°C° 0 mm 2 m/S 746 mmHg 67%
    09:00 +18°C° 0 mm 2 m/S 746 mmHg 61%
    10:00 +19°C° 0 mm 2 m/S 746 mmHg 56%
    11:00 +20°C° 0 mm 2 m/S 746 mmHg 55%
    12:00 +20°C° 0 mm 2 m/S 746 mmHg 54%
    13:00 +20°C° 0 mm 2 m/S 746 mmHg 53%
    14:00 +20°C° 0 mm 2 m/S 746 mmHg 53%
    15:00 +21°C° 0 mm 2 m/S 746 mmHg 52%
    16:00 +21°C° 0 mm 2 m/S 745 mmHg 52%
    17:00 +19°C° 0 mm 2 m/S 745 mmHg 57%
    18:00 +19°C° 0 mm 1 m/S 746 mmHg 63%
    19:00 +18°C° 0 mm 1 m/S 746 mmHg 69%
    20:00 +15°C° 0 mm 1 m/S 746 mmHg 72%
    21:00 +14°C° 0 mm 1 m/S 746 mmHg 76%
    22:00 +13°C° 0 mm 1 m/S 746 mmHg 79%
    23:00 +13°C° 0 mm 1 m/S 746 mmHg 81%
    Mehr zeigen